Location: Omaha
(41.2590°N, 95.9380°W)
Time: 12:58:40
(UTC-06:00)

Envisat - Pass Details

Date: 07 October 2017
Orbit: 764 x 766 km, 98.2° (Epoch: 13 December)

Event Time Altitude Azimuth Distance (km) Brightness Sun altitude
Exits shadow 21:58:40 33° 273° (W) 1,259 4.5 -34.5°
Drops below altitude 10° 22:02:53 10° 328° (NNW) 2,312 6.1 -35.2°
Sets 22:05:24 0° 338° (NNW) 3,243 6.9 -35.7°
